Hourly Weather Bolshie Knyazikovcy

Today, 20 June, Sunday

Time Temperature Precipitation Wind Pressure Humidity
00:00 +19°C° 0 mm 2 mps 751 mmHg 88%
01:00 +19°C° 0 mm 2 mps 751 mmHg 89%
02:00 +19°C° 0 mm 2 mps 751 mmHg 90%
03:00 +19°C° 0 mm 2 mps 751 mmHg 91%
04:00 +19°C° 0 mm 2 mps 751 mmHg 91%
05:00 +19°C° 0 mm 2 mps 751 mmHg 92%
06:00 +20°C° 0 mm 3 mps 751 mmHg 87%
07:00 +22°C° 0 mm 3 mps 751 mmHg 83%
08:00 +25°C° 0 mm 4 mps 751 mmHg 78%
09:00 +26°C° 0 mm 4 mps 751 mmHg 73%
10:00 +27°C° 0 mm 4 mps 751 mmHg 68%
11:00 +28°C° 0 mm 5 mps 751 mmHg 63%
12:00 +29°C° 0 mm 4 mps 750 mmHg 61%
13:00 +29°C° 0 mm 4 mps 750 mmHg 59%
14:00 +30°C° 0 mm 4 mps 750 mmHg 57%
15:00 +30°C° 0.3 mm 4 mps 750 mmHg 61%
16:00 +29°C° 0.3 mm 4 mps 749 mmHg 65%
17:00 +29°C° 0.3 mm 4 mps 749 mmHg 68%
18:00 +27°C° 0.2 mm 3 mps 749 mmHg 74%
19:00 +26°C° 0.2 mm 3 mps 749 mmHg 79%
20:00 +25°C° 0.2 mm 3 mps 749 mmHg 84%
21:00 +24°C° 0 mm 3 mps 749 mmHg 86%
22:00 +22°C° 0 mm 3 mps 749 mmHg 89%
23:00 +21°C° 0 mm 3 mps 749 mmHg 91%

Tomorrow, 21 June, Monday

Time Temperature Precipitation Wind Pressure Humidity
00:00 +21°C° 0 mm 3 mps 749 mmHg 92%
01:00 +20°C° 0 mm 3 mps 749 mmHg 93%
02:00 +19°C° 0 mm 3 mps 749 mmHg 94%
03:00 +19°C° 0 mm 3 mps 749 mmHg 94%
04:00 +19°C° 0 mm 3 mps 749 mmHg 95%
05:00 +19°C° 0 mm 3 mps 748 mmHg 95%
06:00 +20°C° 0 mm 3 mps 748 mmHg 89%
07:00 +22°C° 0 mm 4 mps 748 mmHg 83%
08:00 +23°C° 0 mm 4 mps 748 mmHg 77%
09:00 +25°C° 0 mm 4 mps 748 mmHg 71%
10:00 +27°C° 0 mm 5 mps 748 mmHg 65%
11:00 +28°C° 0 mm 5 mps 748 mmHg 59%
12:00 +28°C° 0 mm 5 mps 748 mmHg 58%
13:00 +29°C° 0 mm 5 mps 747 mmHg 58%
14:00 +29°C° 0 mm 5 mps 747 mmHg 57%
15:00 +29°C° 0.2 mm 5 mps 747 mmHg 61%
16:00 +28°C° 0.2 mm 5 mps 747 mmHg 64%
17:00 +28°C° 0.2 mm 5 mps 746 mmHg 68%
18:00 +27°C° 0.4 mm 4 mps 746 mmHg 73%
19:00 +26°C° 0.4 mm 3 mps 746 mmHg 78%
20:00 +24°C° 0.4 mm 3 mps 746 mmHg 83%
21:00 +22°C° 0.1 mm 3 mps 746 mmHg 86%
22:00 +23°C° 0.1 mm 2 mps 746 mmHg 89%
23:00 +21°C° 0.1 mm 2 mps 746 mmHg 92%

Day after tomorrow, 22 June, Tuesday

Time Temperature Precipitation Wind Pressure Humidity
00:00 +21°C° 0.1 mm 2 mps 746 mmHg 93%
01:00 +20°C° 0.1 mm 2 mps 746 mmHg 94%
02:00 +20°C° 0.1 mm 2 mps 746 mmHg 95%
03:00 +20°C° 0 mm 2 mps 746 mmHg 95%
04:00 +20°C° 0 mm 2 mps 746 mmHg 95%
05:00 +20°C° 0 mm 2 mps 746 mmHg 95%
06:00 +21°C° 0 mm 3 mps 746 mmHg 91%
07:00 +24°C° 0 mm 3 mps 747 mmHg 86%
08:00 +25°C° 0 mm 4 mps 747 mmHg 82%
09:00 +26°C° 0 mm 4 mps 747 mmHg 76%
10:00 +28°C° 0 mm 4 mps 747 mmHg 70%
11:00 +29°C° 0 mm 5 mps 747 mmHg 64%
12:00 +29°C° 0.3 mm 4 mps 747 mmHg 63%
13:00 +30°C° 0.3 mm 4 mps 747 mmHg 62%
14:00 +30°C° 0.3 mm 4 mps 747 mmHg 60%
15:00 +30°C° 0.3 mm 4 mps 747 mmHg 61%
16:00 +30°C° 0.3 mm 3 mps 747 mmHg 62%
17:00 +30°C° 0.3 mm 2 mps 747 mmHg 63%
18:00 +29°C° 0.1 mm 2 mps 747 mmHg 67%
19:00 +28°C° 0.1 mm 1 mps 747 mmHg 71%
20:00 +27°C° 0.1 mm 1 mps 747 mmHg 75%
21:00 +26°C° 0.1 mm 1 mps 747 mmHg 77%
22:00 +25°C° 0.1 mm 1 mps 747 mmHg 80%
23:00 +25°C° 0.1 mm 1 mps 747 mmHg 82%

23 June, Wednesday

Time Temperature Precipitation Wind Pressure Humidity
00:00 +24°C° 0.4 mm 1 mps 747 mmHg 84%
01:00 +23°C° 0.4 mm 1 mps 747 mmHg 87%
02:00 +23°C° 0.4 mm 1 mps 747 mmHg 90%
03:00 +23°C° 0.1 mm 1 mps 747 mmHg 90%
04:00 +23°C° 0.1 mm 1 mps 748 mmHg 91%
05:00 +23°C° 0.1 mm 1 mps 748 mmHg 92%
06:00 +24°C° 0.1 mm 1 mps 748 mmHg 89%
07:00 +25°C° 0.1 mm 2 mps 748 mmHg 85%
08:00 +26°C° 0.1 mm 2 mps 748 mmHg 81%
09:00 +27°C° 0.5 mm 2 mps 748 mmHg 77%
10:00 +28°C° 0.5 mm 2 mps 749 mmHg 72%
11:00 +30°C° 0.5 mm 3 mps 749 mmHg 68%
12:00 +30°C° 0.2 mm 3 mps 749 mmHg 66%
13:00 +31°C° 0.2 mm 3 mps 749 mmHg 64%
14:00 +31°C° 0.2 mm 3 mps 749 mmHg 62%
15:00 +31°C° 0.6 mm 2 mps 749 mmHg 64%
16:00 +30°C° 0.6 mm 2 mps 749 mmHg 67%
17:00 +30°C° 0.6 mm 1 mps 749 mmHg 70%
18:00 +29°C° 0.1 mm 1 mps 749 mmHg 74%
19:00 +28°C° 0.1 mm 2 mps 749 mmHg 77%
20:00 +27°C° 0.1 mm 2 mps 749 mmHg 80%
21:00 +26°C° 0 mm 2 mps 749 mmHg 82%
22:00 +25°C° 0 mm 2 mps 749 mmHg 83%
23:00 +24°C° 0 mm 2 mps 749 mmHg 84%

24 June, Thursday

Time Temperature Precipitation Wind Pressure Humidity
00:00 +23°C° 0 mm 2 mps 749 mmHg 85%
01:00 +23°C° 0 mm 2 mps 749 mmHg 86%
02:00 +23°C° 0 mm 2 mps 749 mmHg 87%
03:00 +23°C° 0 mm 2 mps 749 mmHg 88%
04:00 +23°C° 0 mm 1 mps 749 mmHg 88%
05:00 +23°C° 0 mm 1 mps 749 mmHg 89%
06:00 +24°C° 0 mm 1 mps 749 mmHg 84%
07:00 +26°C° 0 mm 2 mps 749 mmHg 80%
08:00 +27°C° 0 mm 2 mps 749 mmHg 76%
09:00 +28°C° 0 mm 2 mps 749 mmHg 72%
10:00 +30°C° 0 mm 2 mps 749 mmHg 68%
11:00 +31°C° 0 mm 2 mps 750 mmHg 64%
12:00 +31°C° 0.2 mm 2 mps 750 mmHg 63%
13:00 +33°C° 0.2 mm 3 mps 750 mmHg 62%
14:00 +33°C° 0.2 mm 3 mps 749 mmHg 61%
15:00 +32°C° 0.4 mm 2 mps 749 mmHg 62%
16:00 +32°C° 0.4 mm 2 mps 749 mmHg 64%
17:00 +31°C° 0.4 mm 2 mps 749 mmHg 66%
18:00 +29°C° 1.3 mm 2 mps 749 mmHg 72%
19:00 +26°C° 1.3 mm 3 mps 749 mmHg 79%
20:00 +22°C° 1.3 mm 3 mps 749 mmHg 85%
21:00 +21°C° 0.2 mm 3 mps 749 mmHg 85%
22:00 +21°C° 0.2 mm 3 mps 749 mmHg 85%
23:00 +20°C° 0.2 mm 2 mps 749 mmHg 84%

25 June, Friday

Time Temperature Precipitation Wind Pressure Humidity
00:00 +20°C° 0 mm 2 mps 749 mmHg 86%
01:00 +21°C° 0 mm 1 mps 749 mmHg 88%
02:00 +18°C° 0 mm 0 mps 748 mmHg 90%
03:00 +20°C° 0.1 mm 1 mps 748 mmHg 91%
04:00 +19°C° 0.1 mm 2 mps 748 mmHg 93%
05:00 +19°C° 0.1 mm 2 mps 748 mmHg 94%
06:00 +21°C° 0.3 mm 2 mps 748 mmHg 90%
07:00 +23°C° 0.3 mm 2 mps 748 mmHg 85%
08:00 +24°C° 0.3 mm 2 mps 748 mmHg 80%
09:00 +26°C° 0 mm 3 mps 748 mmHg 76%
10:00 +27°C° 0 mm 3 mps 748 mmHg 72%
11:00 +28°C° 0 mm 3 mps 748 mmHg 68%
12:00 +29°C° 0.2 mm 4 mps 747 mmHg 68%
13:00 +30°C° 0.2 mm 4 mps 747 mmHg 68%
14:00 +30°C° 0.2 mm 4 mps 747 mmHg 68%
15:00 +29°C° 2 mm 4 mps 746 mmHg 72%
16:00 +29°C° 2 mm 4 mps 746 mmHg 76%
17:00 +28°C° 2 mm 4 mps 745 mmHg 81%
18:00 +25°C° 8.1 mm 4 mps 746 mmHg 86%
19:00 +22°C° 8.1 mm 5 mps 746 mmHg 90%
20:00 +20°C° 8.1 mm 5 mps 747 mmHg 95%
21:00 +20°C° 0.4 mm 4 mps 747 mmHg 96%
22:00 +19°C° 0.4 mm 3 mps 747 mmHg 96%
23:00 +19°C° 0.4 mm 2 mps 747 mmHg 97%
Show more